Flag for Romania Weather past 2 weeks in Constanța, Romania

Now
83 °F

Passing clouds.


Feels Like: 84 °F
Forecast: 70 / 82 °F
Wind: 1 mph from Southeast

Location: Constanta

Current Time: Jul 23, 2014 at 2:18:45 AM

Latest Report: Jul 22, 2014 at 7:00 PM


Visibility: 6 mi

Pressure: 29.78 "Hg

Humidity: 49%

Dew point: 62 °F

Location of ConstanțaLocation

Historic Weather in Constanța — Graph

°F

Constanța temperature yesterday

Maximum temperature yesterday: 85 °F (at 6:00 PM)
Minimum temperature yesterday: 70 °F (at 5:00 AM)
Average temperature yesterday: 78 °F

Past Weeks' High & Low Weather Summary

 TemperatureHumidityPressure
High85 °F (Jul 22, 6:00 PM)93% (Jul 11, 5:00 PM)30.01 "Hg (Jul 11, 5:00 PM)
Low65 °F (Jul 13, 7:00 AM)38% (Jul 7, 8:00 PM)29.56 "Hg (Jul 11, 6:00 PM)
Average75 °F73%29.83 "Hg
* Reported Jul 7 7:00 PM — Jul 22 7:00 PM, Constanța, Weather by CustomWeather, © 2014

Note: Actual official high and low records may vary slightly from our data, if they occured in-between our weather recording intervals... More about our weather records

Advertising

Constanța weather history for previous 24 hours

 ConditionsComfort  
Time TempWeatherWind HumidityBarometerVisibility
7:00 PM
Jul 22
83 °FPassing clouds.1 mph49%29.78 "Hg6 mi
6:00 PM85 °FSunny.1 mph47%29.78 "Hg6 mi
5:00 PM84 °FPassing clouds.3 mph48%29.78 "Hg6 mi
4:00 PM83 °FPassing clouds.5 mph55%29.78 "Hg6 mi
3:00 PM83 °FPassing clouds.3 mph68%29.80 "Hg6 mi
2:00 PM82 °FScattered clouds.5 mph66%29.80 "Hg6 mi
1:00 PM81 °FScattered clouds.5 mph69%29.80 "Hg6 mi
12:00 PM80 °FScattered clouds.5 mph66%29.81 "Hg6 mi
11:00 AM80 °FScattered clouds.2 mph60%29.80 "Hg6 mi
10:00 AM79 °FSunny.1 mph60%29.81 "Hg6 mi
9:00 AM78 °FSunny.1 mph65%29.80 "Hg6 mi
8:00 AM75 °FPassing clouds.No wind67%29.79 "Hg6 mi
7:00 AM70 °FPassing clouds.1 mph76%29.79 "Hg6 mi
6:00 AM70 °FSunny.No wind76%29.79 "Hg6 mi
5:00 AM70 °FClear.No wind73%29.79 "Hg6 mi
4:00 AM71 °FClear.No wind71%29.80 "Hg6 mi
3:00 AM74 °FClear.1 mph64%29.80 "Hg6 mi
2:00 AM75 °FClear.2 mph61%29.81 "Hg6 mi
Weather by CustomWeather, © 2014

See weather overviewHow to use our weather pages